Location: SE Lincoln, NE
(40.7805°N, 96.6275°W)
Time: 05:12:24
(UTC-05:00)

Cosmos 1709 Rocket - Pass Details

Date: 15 May 2021
Orbit: 948 x 1002 km, 82.9° (Epoch: 20 June)

Event Time Altitude Azimuth Distance (km) Brightness Sun altitude
Rises 21:12:19 0° 357° (N) 3,629 7.5 -6.6°
Reaches altitude 10° 21:14:53 10° 1° (N) 2,679 6.8 -7.0°
Maximum altitude 21:20:52 55° 79° (E) 1,130 4.1 -7.9°
Drops below altitude 10° 21:26:50 10° 157° (SSE) 2,672 5.8 -8.9°
Enters shadow 21:28:08 - 160° (SSE) 3,154 6.2 -9.1°
